SCP
0 0 0 0 0 0 0 0 0 0 0 0 0 0 0 0 0 0 0 0 0 0 0 0 0 0 0 0 0 0 0 0 0 0 0 0 0 0 0 0 0 0 0 0
0 0 0 0 0 0 0 0 0 0 0 0 0 0 0 0 0 0 0 0 0 0 0 0 0 0 0 0 1 1 1 1 0 0 0 0 0 0 0 0 0 1 1 1
0 0 0 0 0 0 0 0 0 0 0 0 0 0 0 0 0 0 0 0 0 0 0 0 0 0 0 0 1 1 1 1 1 0 0 0 0 0 0 0 1 1 1 1
0 0 0 0 0 0 0 0 0 0 0 0 0 0 0 0 0 0 0 0 0 0 0 0 0 0 0 0 1 1 1 1 1 1 1 1 1 0 0 1 1 1 1 0
0 0 0 0 0 0 0 0 0 0 0 0 0 0 0 0 0 0 0 0 0 0 0 0 1 1 0 0 1 1 1 1 1 1 1 1 1 1 1 1 1 1 0 0
0 0 0 0 0 0 0 0 0 0 0 0 0 0 0 0 0 0 0 0 0 0 0 1 1 1 1 1 1 1 1 1 1 1 1 1 1 1 1 1 1 1 1 0
0 0 0 0 0 0 0 0 0 0 0 0 0 0 0 0 0 0 0 0 0 0 0 1 1 1 1 1 1 1 2 1 1 1 1 1 1 1 1 1 1 1 1 1
0 0 0 0 0 0 0 0 0 0 0 0 0 0 0 0 0 0 0 0 0 0 1 1 1 1 1 1 1 2 2 2 1 1 1 1 1 1 1 1 1 1 1 1
0 0 0 0 0 0 0 0 0 0 0 0 0 0 0 0 0 0 0 0 0 1 1 1 1 1 1 1 1 2 2 2 1 1 1 1 1 1 1 1 1 1 1 1
0 0 0 0 0 0 0 0 0 0 0 0 0 0 0 0 0 0 0 0 0 1 1 1 1 1 1 1 1 1 2 2 2 1 1 1 1 1 1 1 1 1 1 1
0 0 0 0 0 0 0 0 0 0 0 0 0 0 0 0 0 0 0 0 1 1 1 1 1 1 1 1 1 1 1 2 2 1 1 1 1 1 1 1 1 1 1 1
0 0 0 0 0 0 0 0 0 0 0 0 0 0 0 0 0 0 0 1 1 1 1 1 1 1 1 1 1 1 1 1 1 1 1 1 1 1 1 1 1 1 1 1
0 0 0 0 0 0 0 0 0 0 0 0 0 0 0 0 0 0 0 1 1 1 1 1 1 1 1 1 1 1 1 1 1 1 1 1 1 1 1 1 1 1 1 1
0 0 0 0 0 0 0 0 0 0 0 0 0 0 0 1 1 1 1 1 1 1 1 1 1 2 2 2 2 2 1 1 1 2 2 2 2 2 1 1 1 1 1 1
0 0 0 0 0 0 0 0 0 0 0 0 0 0 1 1 1 1 1 1 1 1 1 2 2 2 2 2 2 2 2 2 2 2 2 2 2 2 2 1 1 1 1 1
0 0 0 0 0 0 0 0 0 0 0 0 0 0 0 1 1 1 1 1 1 1 1 1 2 2 2 2 2 2 2 2 2 2 2 2 2 2 2 1 1 1 1 1
0 0 0 0 0 0 0 0 0 0 0 0 0 0 0 1 1 1 1 1 1 1 1 1 1 2 2 2 2 2 2 2 2 2 2 2 2 2 2 2 2 2 2 2
0 0 0 0 0 0 0 0 0 0 0 0 0 0 0 0 1 1 1 1 1 1 1 2 2 2 2 1 2 2 2 2 2 2 2 2 2 2 2 2 2 2 2 2
0 0 0 0 0 0 0 0 0 0 0 0 0 0 0 1 1 1 1 1 1 1 2 2 2 2 2 2 2 2 2 2 3 3 2 2 2 2 2 2 2 2 2 2
0 0 0 0 0 0 0 0 0 0 0 0 0 1 1 1 1 1 1 1 1 1 1 2 2 2 2 2 2 2 2 2 2 2 2 2 2 2 2 2 3 3 3 3
0 0 0 0 0 0 0 0 0 0 0 1 1 1 1 1 1 1 1 1 1 1 1 2 2 2 2 2 2 2 2 2 2 2 2 2 2 2 2 2 3 3 3 3
0 0 0 0 0 0 0 0 0 1 1 1 1 1 1 1 1 1 1 1 1 1 1 1 2 2 2 2 2 2 2 2 2 2 2 2 2 2 2 2 3 3 3 3
0 0 0 0 0 0 0 0 1 1 1 1 1 1 1 1 1 1 1 1 1 1 1 1 2 2 2 2 2 2 2 2 2 2 2 2 2 2 2 2 3 3 3 2
0 0 0 0 0 0 0 0 0 1 1 1 1 1 1 1 1 1 1 1 1 1 1 1 1 2 2 2 2 2 2 2 2 2 2 2 2 2 3 3 3 2 2 2
0 0 0 0 0 0 0 0 0 0 1 1 1 1 1 1 1 1 1 1 1 1 1 1 1 1 1 2 2 2 2 2 2 2 2 2 2 3 3 2 2 2 1 1
0 0 0 0 0 0 0 0 0 0 1 1 1 1 1 1 1 1 1 1 1 1 1 1 1 1 1 1 2 2 2 2 2 2 2 2 2 2 2 2 1 1 1 1
Wind_Speed
12 10 7 5 6 5 2 2 2 3 4 3 5 8 10 11 10 10 11 11 11 11 12 11 10 10 9 8 7 6 4 4 2 2 1 1 1 1 2 2 3 3 2 2
11 12 9 7 7 6 4 5 4 3 3 3 3 6 9 11 11 10 10 12 12 12 12 11 11 10 10 9 8 7 5 4 3 2 1 1 1 1 2 1 2 2 1 2
14 8 7 7 8 8 5 4 4 2 1 3 2 3 7 10 11 11 11 12 14 13 13 12 11 10 10 10 8 7 5 5 4 3 2 1 1 0 1 2 2 2 1 1
12 10 9 10 9 7 4 4 5 4 4 5 6 3 6 10 11 12 12 11 13 13 13 12 11 10 10 10 9 7 6 5 4 3 2 2 2 1 1 1 2 2 1 1
12 12 12 11 8 6 5 6 7 9 7 7 6 3 5 9 10 11 11 11 12 13 13 13 12 10 10 11 10 8 7 5 4 3 2 1 1 1 0 1 2 2 1 1
14 13 11 9 8 7 6 8 9 11 9 9 6 3 4 6 8 11 12 12 12 13 13 13 12 11 10 10 10 9 8 6 5 4 2 2 1 0 0 0 1 1 1 1
16 15 11 10 10 9 9 9 5 6 6 6 5 3 4 6 6 9 12 11 12 12 12 12 12 12 10 10 10 10 9 7 5 5 3 3 2 2 1 1 1 1 1 1
14 13 13 12 11 9 10 11 7 6 6 5 3 2 4 7 7 8 10 11 12 12 12 12 12 11 12 11 10 10 9 7 6 5 4 3 3 2 1 1 1 1 0 0
10 9 9 10 11 12 11 11 11 9 9 8 4 3 4 6 7 8 9 11 11 11 12 12 12 12 11 12 11 10 10 8 7 6 5 3 3 2 1 1 1 1 1 1
9 9 8 8 9 12 12 11 9 7 6 8 7 4 3 7 6 8 9 10 10 10 10 11 11 10 10 10 10 10 10 8 7 6 5 5 4 3 2 2 1 1 0 0
11 10 9 10 12 12 12 13 10 7 7 8 6 2 2 4 6 7 8 9 9 9 9 10 10 10 9 9 9 9 10 9 8 7 5 4 4 4 4 2 1 1 1 0
8 9 9 12 11 10 12 11 10 7 7 7 7 3 3 5 5 5 6 8 8 8 8 9 10 10 9 9 9 8 7 8 9 7 6 5 4 4 4 3 2 2 1 1
5 7 8 10 10 10 12 12 11 9 8 7 8 3 3 2 3 3 3 6 7 6 6 7 8 8 8 7 7 7 7 6 6 7 7 6 5 4 4 3 3 3 2 2
6 9 11 10 8 9 10 12 12 10 8 9 8 4 2 0 3 3 3 5 7 7 6 6 7 7 6 6 5 5 5 5 5 5 6 5 5 4 3 3 3 3 3 3
7 10 12 13 13 13 12 12 13 12 11 10 6 5 3 1 2 2 3 4 6 6 6 6 6 6 6 6 5 4 4 4 4 3 4 4 4 3 3 3 3 3 4 4
6 8 11 13 14 15 14 14 14 13 11 9 6 5 2 3 4 4 4 4 5 5 4 5 5 4 5 5 5 4 4 3 4 4 4 4 4 3 3 3 4 3 3 3
7 7 9 12 13 14 15 12 12 11 8 7 6 3 1 2 5 4 3 4 4 4 4 3 4 4 3 4 4 5 4 4 4 4 3 3 4 4 4 4 3 3 4 4
7 6 7 11 11 15 8 7 8 8 5 4 3 1 1 2 3 4 4 5 5 5 4 4 2 2 2 3 4 4 5 4 4 4 4 4 4 4 4 3 3 3 3 3
7 7 8 9 12 13 8 7 8 7 5 4 3 1 1 2 3 4 5 6 6 5 4 3 2 1 1 1 2 3 4 4 4 4 3 3 4 3 3 3 4 3 3 4
8 7 9 10 12 11 7 7 7 6 5 3 3 4 4 2 1 3 6 6 6 4 4 3 3 2 2 1 1 1 2 2 3 3 2 2 3 4 4 4 4 3 3 4
9 9 11 12 12 8 6 8 6 7 0 5 5 5 4 5 5 4 5 5 4 3 3 3 3 2 2 1 1 1 1 1 1 2 2 2 3 3 4 3 3 3 3 3
8 8 8 9 11 7 4 4 3 4 5 5 5 5 6 6 5 5 5 5 3 3 3 2 2 2 2 2 0 0 0 1 1 2 2 2 3 4 4 3 3 3 4 4
5 5 4 3 3 3 5 5 4 4 4 4 5 5 4 4 4 4 4 3 3 3 2 2 2 2 2 2 1 1 0 1 2 2 3 3 4 4 3 4 4 4 3 4
3 4 5 3 2 1 3 3 4 5 5 4 4 4 4 4 5 5 4 3 3 3 2 2 2 2 2 1 2 1 1 1 2 3 3 3 4 4 4 3 4 4 3 4
4 3 4 3 2 1 1 2 3 4 4 4 4 5 5 5 5 4 3 3 3 3 3 2 2 3 2 2 2 2 1 1 3 3 2 3 4 3 2 3 3 3 2 2
5 4 5 4 3 3 2 2 3 3 4 4 5 5 5 5 5 5 3 3 3 3 3 2 3 3 3 2 2 2 2 2 2 3 3 3 2 2 2 2 2 1 2 3
Wind_Direction
230 234 233 227 246 256 200 226 198 152 162 179 148 153 157 160 161 156 158 156 154 152 149 149 147 143 137 133 131 127 125 117 113 109 134 133 122 145 129 133 130 131 145 150
231 233 232 226 237 246 219 230 222 182 186 229 185 162 166 169 166 164 166 159 157 156 153 152 153 150 144 141 139 139 143 141 138 135 137 131 123 163 135 99 117 137 159 163
234 237 222 227 235 234 223 244 255 227 213 251 248 206 174 171 165 168 174 168 163 164 163 161 162 159 154 149 148 150 145 145 158 155 144 163 154 77 109 140 139 148 150 141
240 244 240 235 238 248 251 252 268 258 245 254 228 214 197 183 171 174 178 174 165 163 163 164 165 165 160 154 152 141 141 144 149 153 172 183 160 162 168 145 141 143 135 151
236 233 236 240 241 252 258 272 275 267 258 262 241 221 219 182 175 177 177 176 168 161 164 164 165 163 163 159 155 147 142 147 149 164 168 167 153 161 160 139 136 141 161 191
248 245 234 240 242 247 252 255 256 258 258 260 261 242 196 177 178 173 176 177 167 163 164 162 161 158 163 163 156 150 146 150 153 158 162 160 197 203 333 9 121 177 177 187
235 237 229 229 237 228 233 251 257 262 248 250 254 225 198 166 177 162 169 169 166 162 163 162 160 162 164 162 156 150 149 157 162 164 172 171 201 214 218 234 202 224 204 162
234 227 218 218 231 238 234 244 252 261 274 281 252 221 178 150 146 149 155 161 161 163 163 165 164 167 167 162 158 152 151 159 166 170 177 181 188 207 208 211 257 187 214 156
253 244 219 217 224 239 245 247 254 260 265 270 253 206 165 143 143 148 154 154 157 164 165 165 166 169 169 165 162 161 155 160 166 170 170 176 183 208 240 199 214 237 233 212
263 267 245 231 231 234 244 253 261 261 274 276 272 239 207 154 153 144 148 151 158 162 165 162 164 166 166 162 162 162 160 162 164 172 184 181 187 192 214 240 198 179 236 352
249 256 250 237 231 234 231 240 251 278 277 271 277 296 128 180 167 155 155 153 155 161 167 164 162 163 164 163 162 161 164 164 171 180 182 187 183 186 194 201 195 210 185 200
245 257 255 249 244 246 246 249 246 248 264 276 282 278 162 176 152 149 152 146 149 159 167 164 161 161 162 164 163 160 171 174 175 178 178 186 188 187 191 189 187 190 192 200
278 266 256 246 241 231 238 244 247 252 259 260 265 261 148 140 121 104 107 130 136 149 157 155 155 155 157 162 161 164 173 177 182 177 185 185 187 191 191 184 181 188 201 207
265 254 260 258 268 264 243 246 247 249 254 257 258 252 249 4 92 102 101 122 139 145 144 141 141 145 150 152 156 161 170 175 175 175 189 177 183 183 184 187 188 189 199 212
247 255 261 268 271 272 270 263 256 250 257 265 264 237 229 136 85 88 99 112 123 130 137 136 138 145 151 156 156 161 173 171 170 175 183 172 176 180 183 192 202 199 204 216
246 264 269 266 266 266 261 256 258 256 254 258 254 257 252 138 96 63 69 89 102 111 118 133 139 141 152 158 164 171 175 170 168 182 190 173 178 186 192 205 209 213 216 223
243 255 261 263 261 262 253 255 259 259 262 268 271 272 191 114 99 73 67 76 74 96 115 121 142 151 165 172 168 177 179 176 181 187 188 183 188 196 202 215 212 219 226 229
248 258 256 260 263 256 262 279 275 272 282 287 294 345 18 81 97 90 85 76 68 57 66 84 92 140 173 180 179 184 189 187 190 194 191 191 196 204 208 213 216 220 227 233
235 238 252 255 253 255 254 263 267 267 279 292 284 323 25 99 116 88 79 80 72 59 48 48 54 61 69 120 167 181 196 192 194 200 202 198 202 206 213 215 221 222 224 235
226 226 242 250 253 254 267 277 276 262 240 346 0 37 26 19 200 99 83 78 69 54 51 36 25 38 45 31 90 166 199 189 199 204 211 204 215 215 214 214 222 226 224 228
219 219 233 245 250 252 293 302 287 253 237 41 27 28 27 27 19 50 68 74 72 56 58 50 29 30 35 29 72 177 213 207 226 230 220 207 214 223 219 209 217 219 222 233
232 232 230 245 250 248 330 292 329 50 59 54 35 26 29 39 38 39 43 51 46 42 43 33 26 16 16 19 344 208 296 299 263 244 239 235 228 236 231 214 224 224 223 231
240 259 263 252 250 25 23 45 62 71 63 46 31 23 24 24 19 18 23 29 22 9 16 4 358 4 6 349 335 268 277 287 271 256 239 242 238 236 230 228 229 224 218 234
239 270 270 270 234 45 34 38 47 42 37 37 24 13 16 5 357 3 10 7 4 335 327 342 336 328 327 336 327 310 283 258 253 255 245 243 238 236 229 219 227 225 228 234
296 289 278 272 258 246 279 349 16 23 12 4 3 360 350 345 341 342 341 347 344 329 321 330 320 314 322 319 306 302 308 265 258 257 253 258 245 241 243 233 242 235 240 221
300 287 264 258 273 272 268 309 339 347 345 345 344 339 334 330 326 323 323 323 314 308 315 316 302 300 301 298 296 313 317 292 271 261 253 258 260 237 236 239 270 311 264 221